AAL2375 KPHX-KSAT

Flight info

Callsign AAL2375
Flight time 2h 4m
Altitude 37000
Route ECLPS1 PHASE ELP FST MOPPP DNKIN1
Aircraft A20N/M-SDE2E3FGHIJ1RWXY/LB1

Departure

Time 2026-05-06 15:14
Airport Phoenix Sky Harbor International Airport (KPHX)

Arrival

Time 2026-05-06 17:18
Airport San Antonio International Airport (KSAT)
Time Latitude Longitude Altitude Speed Heading
2026-05-06 14:36 33.43752 -111.99980 1134 ft 0 kts 90°
2026-05-06 14:59 33.43752 -111.99981 1134 ft 2 kts 90°
2026-05-06 15:00 33.43750 -112.00008 1124 ft 4 kts 64°
2026-05-06 15:00 33.43736 -112.00028 1137 ft 4 kts 21°
2026-05-06 15:00 33.43720 -112.00032 1138 ft 1 kts
2026-05-06 15:00 33.43718 -112.00032 1138 ft 0 kts
2026-05-06 15:06 33.43723 -112.00032 1138 ft 5 kts
2026-05-06 15:06 33.43777 -112.00032 1135 ft 8 kts 360°
2026-05-06 15:06 33.43832 -112.00033 1137 ft 8 kts 360°
2026-05-06 15:06 33.43887 -112.00023 1136 ft 8 kts 30°
2026-05-06 15:07 33.43904 -111.99972 1134 ft 6 kts 87°
2026-05-06 15:07 33.43905 -111.99850 1134 ft 19 kts 90°
2026-05-06 15:07 33.43904 -111.99691 1134 ft 19 kts 90°
2026-05-06 15:07 33.43904 -111.99534 1135 ft 19 kts 90°
2026-05-06 15:08 33.43904 -111.99380 1135 ft 18 kts 90°
2026-05-06 15:08 33.43894 -111.99250 1137 ft 12 kts 123°
2026-05-06 15:08 33.43814 -111.99229 1136 ft 14 kts 180°
2026-05-06 15:08 33.43711 -111.99229 1136 ft 15 kts 180°
2026-05-06 15:09 33.43604 -111.99230 1135 ft 16 kts 180°
2026-05-06 15:09 33.43494 -111.99230 1134 ft 16 kts 180°
2026-05-06 15:09 33.43386 -111.99230 1136 ft 16 kts 180°
2026-05-06 15:09 33.43279 -111.99230 1135 ft 15 kts 180°
2026-05-06 15:10 33.43205 -111.99269 1136 ft 0 kts 222°
2026-05-06 15:12 33.43195 -111.99280 1137 ft 9 kts 223°
2026-05-06 15:12 33.43123 -111.99346 1142 ft 12 kts 201°
2026-05-06 15:12 33.43104 -111.99402 1139 ft 7 kts 268°
2026-05-06 15:12 33.43104 -111.99409 1138 ft 0 kts 268°
2026-05-06 15:13 33.43104 -111.99412 1138 ft 7 kts 268°
2026-05-06 15:13 33.43104 -111.99765 1138 ft 76 kts 270°
2026-05-06 15:13 33.43104 -112.00649 1136 ft 135 kts 270°
2026-05-06 15:13 33.43109 -112.01955 1262 ft 168 kts 270°
2026-05-06 15:14 33.43064 -112.03363 1820 ft 171 kts 262°
2026-05-06 15:14 33.42889 -112.04747 2730 ft 165 kts 260°
2026-05-06 15:14 33.42673 -112.06162 3299 ft 186 kts 259°
2026-05-06 15:14 33.42390 -112.07805 3530 ft 219 kts 258°
2026-05-06 15:15 33.42000 -112.09720 3815 ft 251 kts 256°
2026-05-06 15:15 33.41492 -112.11784 4519 ft 263 kts 253°
2026-05-06 15:15 33.40886 -112.13869 5392 ft 268 kts 250°
2026-05-06 15:15 33.40076 -112.15900 6302 ft 275 kts 236°
2026-05-06 15:16 33.38675 -112.17456 7148 ft 279 kts 208°
2026-05-06 15:16 33.36816 -112.18065 7722 ft 282 kts 179°
2026-05-06 15:16 33.34866 -112.17702 7968 ft 285 kts 164°
2026-05-06 15:16 33.32963 -112.17023 7994 ft 286 kts 161°
2026-05-06 15:17 33.31061 -112.16294 7995 ft 287 kts 160°
2026-05-06 15:17 33.29266 -112.15345 8000 ft 286 kts 147°
2026-05-06 15:17 33.27709 -112.13872 8289 ft 287 kts 135°
2026-05-06 15:17 33.26247 -112.12174 9157 ft 291 kts 134°
2026-05-06 15:18 33.24858 -112.10401 10107 ft 294 kts 127°
2026-05-06 15:18 33.23758 -112.08282 10618 ft 311 kts 112°
2026-05-06 15:18 33.23011 -112.05823 11113 ft 327 kts 106°
2026-05-06 15:18 33.22339 -112.03196 11882 ft 335 kts 106°
2026-05-06 15:19 33.21657 -112.00504 12688 ft 341 kts 106°
2026-05-06 15:19 33.20959 -111.97778 13569 ft 345 kts 106°
2026-05-06 15:19 33.20246 -111.95022 14379 ft 350 kts 107°
2026-05-06 15:19 33.19518 -111.92229 15124 ft 355 kts 107°
2026-05-06 15:20 33.18775 -111.89392 15862 ft 361 kts 107°
2026-05-06 15:20 33.18020 -111.86514 16633 ft 366 kts 107°
2026-05-06 15:20 33.17253 -111.83599 17377 ft 371 kts 107°
2026-05-06 15:20 33.16475 -111.80645 18115 ft 376 kts 108°
2026-05-06 15:21 33.15685 -111.77649 18693 ft 383 kts 108°
2026-05-06 15:21 33.14874 -111.74578 19202 ft 392 kts 108°
2026-05-06 15:21 33.14048 -111.71457 19788 ft 397 kts 109°
2026-05-06 15:21 33.13211 -111.68295 20366 ft 403 kts 109°
2026-05-06 15:22 33.12360 -111.65089 20970 ft 408 kts 109°
2026-05-06 15:22 33.11496 -111.61835 21548 ft 414 kts 109°
2026-05-06 15:22 33.10622 -111.58541 22105 ft 419 kts 110°
2026-05-06 15:22 33.09735 -111.55206 22619 ft 425 kts 110°
2026-05-06 15:23 33.08835 -111.51825 23179 ft 430 kts 110°
2026-05-06 15:23 33.07921 -111.48405 23690 ft 436 kts 111°
2026-05-06 15:23 33.06823 -111.45021 24036 ft 439 kts 121°
2026-05-06 15:23 33.05317 -111.41863 24478 ft 438 kts 127°
2026-05-06 15:24 33.03665 -111.38804 25027 ft 439 kts 129°
2026-05-06 15:24 33.01985 -111.35756 25513 ft 442 kts 129°
2026-05-06 15:24 33.00290 -111.32686 25992 ft 444 kts 129°
2026-05-06 15:24 32.98591 -111.29603 26457 ft 447 kts 129°
2026-05-06 15:25 32.96901 -111.26533 26898 ft 450 kts 129°
2026-05-06 15:25 32.95182 -111.23410 27343 ft 453 kts 129°
2026-05-06 15:25 32.93450 -111.20262 27783 ft 456 kts 129°
2026-05-06 15:25 32.91709 -111.17101 28211 ft 458 kts 129°
2026-05-06 15:26 32.89956 -111.13921 28604 ft 461 kts 129°
2026-05-06 15:26 32.88186 -111.10713 28913 ft 467 kts 131°
2026-05-06 15:26 32.86392 -111.07467 29205 ft 472 kts 131°
2026-05-06 15:26 32.84585 -111.04195 29604 ft 474 kts 132°
2026-05-06 15:27 32.82769 -111.00908 30004 ft 477 kts 132°
2026-05-06 15:27 32.80942 -110.97605 30351 ft 479 kts 132°
2026-05-06 15:27 32.79107 -110.94293 30676 ft 481 kts 132°
2026-05-06 15:27 32.77259 -110.90965 31009 ft 483 kts 132°
2026-05-06 15:28 32.75409 -110.87627 31292 ft 485 kts 132°
2026-05-06 15:28 32.73549 -110.84275 31641 ft 486 kts 133°
2026-05-06 15:28 32.71691 -110.80928 32045 ft 485 kts 133°
2026-05-06 15:28 32.69831 -110.77581 32337 ft 486 kts 134°
2026-05-06 15:29 32.67963 -110.74227 32606 ft 488 kts 134°
2026-05-06 15:29 32.66099 -110.70851 32937 ft 491 kts 132°
2026-05-06 15:29 32.64497 -110.67222 33300 ft 505 kts 122°
2026-05-06 15:29 32.63379 -110.63220 33653 ft 514 kts 115°
2026-05-06 15:30 32.62456 -110.59111 34003 ft 516 kts 113°
2026-05-06 15:30 32.61566 -110.54995 34290 ft 515 kts 113°
2026-05-06 15:30 32.60674 -110.50884 34587 ft 515 kts 113°
2026-05-06 15:30 32.59774 -110.46771 34884 ft 514 kts 114°
2026-05-06 15:31 32.58880 -110.42716 35124 ft 515 kts 114°
2026-05-06 15:31 32.57971 -110.38608 35402 ft 515 kts 114°
2026-05-06 15:31 32.57063 -110.34514 35717 ft 513 kts 114°
2026-05-06 15:32 32.55245 -110.26354 36280 ft 511 kts 114°
2026-05-06 15:32 32.54337 -110.22290 36534 ft 510 kts 114°
2026-05-06 15:32 32.53424 -110.18217 36670 ft 512 kts 114°
2026-05-06 15:32 32.52509 -110.14140 36862 ft 512 kts 114°
2026-05-06 15:33 32.51591 -110.10059 37027 ft 514 kts 114°
2026-05-06 15:33 32.50670 -110.05969 37027 ft 515 kts 114°
2026-05-06 15:33 32.48825 -109.97784 37029 ft 514 kts 114°
2026-05-06 15:34 32.46977 -109.89616 37008 ft 513 kts 114°
2026-05-06 15:34 32.45125 -109.81460 37007 ft 513 kts 114°
2026-05-06 15:35 32.43480 -109.73193 36998 ft 522 kts 108°
2026-05-06 15:35 32.42386 -109.64681 36989 ft 524 kts 107°
2026-05-06 15:36 32.41326 -109.56214 36988 ft 524 kts 107°
2026-05-06 15:36 32.40246 -109.47693 36949 ft 524 kts 107°
2026-05-06 15:37 32.39152 -109.39146 36979 ft 526 kts 107°
2026-05-06 15:37 32.38049 -109.30580 36983 ft 527 kts 107°
2026-05-06 15:38 32.36941 -109.22017 36977 ft 527 kts 107°
2026-05-06 15:38 32.35778 -109.13473 36977 ft 524 kts 109°
2026-05-06 15:39 32.34322 -109.05060 36978 ft 522 kts 112°
2026-05-06 15:39 32.32767 -108.96671 36980 ft 522 kts 112°
2026-05-06 15:40 32.31226 -108.88273 36975 ft 523 kts 111°
2026-05-06 15:40 32.29705 -108.79867 36972 ft 523 kts 111°
2026-05-06 15:41 32.28188 -108.71459 37128 ft 523 kts 112°
2026-05-06 15:41 32.26664 -108.63049 37113 ft 523 kts 112°
2026-05-06 15:42 32.25133 -108.54641 37091 ft 523 kts 112°
2026-05-06 15:42 32.23598 -108.46248 37061 ft 523 kts 112°
2026-05-06 15:43 32.22058 -108.37857 37014 ft 523 kts 112°
2026-05-06 15:43 32.20512 -108.29471 36967 ft 523 kts 112°
2026-05-06 15:44 32.19223 -108.22501 36964 ft 523 kts 112°
2026-05-06 15:44 32.17415 -108.12763 36959 ft 523 kts 112°
2026-05-06 15:45 32.15854 -108.04392 36962 ft 522 kts 112°
2026-05-06 15:45 32.14286 -107.96014 36963 ft 522 kts 112°
2026-05-06 15:46 32.12715 -107.87652 36953 ft 522 kts 112°
2026-05-06 15:46 32.11404 -107.80703 37075 ft 522 kts 112°
2026-05-06 15:47 32.09821 -107.72336 37063 ft 522 kts 113°
2026-05-06 15:47 32.08233 -107.63978 37059 ft 522 kts 113°
2026-05-06 15:48 32.06639 -107.55625 37014 ft 521 kts 113°
2026-05-06 15:48 32.05043 -107.47283 36989 ft 522 kts 113°
2026-05-06 15:49 32.03440 -107.38938 36938 ft 522 kts 113°
2026-05-06 15:49 32.01829 -107.30588 36941 ft 523 kts 113°
2026-05-06 15:50 32.00212 -107.22234 36941 ft 523 kts 113°
2026-05-06 15:50 31.98591 -107.13888 36939 ft 522 kts 114°
2026-05-06 15:51 31.96977 -107.05608 36944 ft 522 kts 114°
2026-05-06 15:51 31.95348 -106.97280 36935 ft 522 kts 114°
2026-05-06 15:52 31.93712 -106.88956 36936 ft 522 kts 114°
2026-05-06 15:52 31.92892 -106.84797 37097 ft 521 kts 114°
2026-05-06 15:52 31.92072 -106.80642 37117 ft 521 kts 114°
2026-05-06 15:53 31.90427 -106.72330 37122 ft 521 kts 114°
2026-05-06 15:53 31.88776 -106.64018 37117 ft 522 kts 114°
2026-05-06 15:54 31.87119 -106.55706 37096 ft 522 kts 114°
2026-05-06 15:54 31.85467 -106.47449 37101 ft 522 kts 114°
2026-05-06 15:55 31.83803 -106.39146 37094 ft 522 kts 114°
2026-05-06 15:55 31.82128 -106.30842 37042 ft 521 kts 114°
2026-05-06 15:56 31.80316 -106.22635 37068 ft 517 kts 117°
2026-05-06 15:56 31.78293 -106.14545 37023 ft 515 kts 118°
2026-05-06 15:57 31.76246 -106.06479 36978 ft 515 kts 118°
2026-05-06 15:57 31.74219 -105.98406 36919 ft 516 kts 118°
2026-05-06 15:58 31.72202 -105.90322 36923 ft 516 kts 118°
2026-05-06 15:58 31.70185 -105.82239 36922 ft 515 kts 118°
2026-05-06 15:59 31.68162 -105.74166 36922 ft 515 kts 118°
2026-05-06 15:59 31.66133 -105.66095 36920 ft 516 kts 118°
2026-05-06 16:00 31.64098 -105.58021 36912 ft 516 kts 118°
2026-05-06 16:00 31.62055 -105.49947 36922 ft 517 kts 118°
2026-05-06 16:01 31.60007 -105.41868 36922 ft 516 kts 118°
2026-05-06 16:01 31.57955 -105.33800 36921 ft 516 kts 118°
2026-05-06 16:02 31.55896 -105.25728 36922 ft 517 kts 118°
2026-05-06 16:02 31.53829 -105.17654 36919 ft 518 kts 118°
2026-05-06 16:03 31.51756 -105.09575 36919 ft 518 kts 118°
2026-05-06 16:03 31.49680 -105.01502 36920 ft 517 kts 118°
2026-05-06 16:04 31.47600 -104.93434 36921 ft 517 kts 118°
2026-05-06 16:04 31.45521 -104.85349 36912 ft 519 kts 118°
2026-05-06 16:05 31.43436 -104.77329 36919 ft 518 kts 118°
2026-05-06 16:05 31.41330 -104.69266 36920 ft 518 kts 118°
2026-05-06 16:06 31.39223 -104.61209 36920 ft 518 kts 118°
2026-05-06 16:06 31.37115 -104.53156 36918 ft 517 kts 118°
2026-05-06 16:07 31.34987 -104.45052 36923 ft 518 kts 118°
2026-05-06 16:07 31.32882 -104.37056 36924 ft 518 kts 118°
2026-05-06 16:08 31.30759 -104.29015 36919 ft 517 kts 119°
2026-05-06 16:08 31.28633 -104.20983 36935 ft 517 kts 119°
2026-05-06 16:09 31.26497 -104.12945 36922 ft 518 kts 118°
2026-05-06 16:09 31.24359 -104.04911 36922 ft 518 kts 119°
2026-05-06 16:10 31.22214 -103.96875 36919 ft 518 kts 119°
2026-05-06 16:10 31.20066 -103.88853 36919 ft 518 kts 119°
2026-05-06 16:11 31.17912 -103.80830 36933 ft 518 kts 119°
2026-05-06 16:11 31.15751 -103.72806 36936 ft 518 kts 119°
2026-05-06 16:12 31.13586 -103.64783 36944 ft 518 kts 119°
2026-05-06 16:12 31.11415 -103.56759 36940 ft 518 kts 119°
2026-05-06 16:13 31.09239 -103.48742 36923 ft 518 kts 119°
2026-05-06 16:13 31.07055 -103.40723 36912 ft 519 kts 118°
2026-05-06 16:14 31.04867 -103.32704 36888 ft 519 kts 118°
2026-05-06 16:14 31.02676 -103.24693 36894 ft 519 kts 118°
2026-05-06 16:15 31.00478 -103.16683 36880 ft 518 kts 118°
2026-05-06 16:15 30.98278 -103.08687 36881 ft 518 kts 118°
2026-05-06 16:16 30.96070 -103.00683 36884 ft 518 kts 118°
2026-05-06 16:16 30.93962 -102.92627 36881 ft 521 kts 117°
2026-05-06 16:17 30.92957 -102.88570 37029 ft 522 kts 116°
2026-05-06 16:17 30.91952 -102.84510 37030 ft 522 kts 117°
2026-05-06 16:17 30.89934 -102.76398 36982 ft 521 kts 117°
2026-05-06 16:18 30.87911 -102.68305 36958 ft 520 kts 116°
2026-05-06 16:18 30.85892 -102.60253 36925 ft 517 kts 117°
2026-05-06 16:19 30.83869 -102.52222 36886 ft 517 kts 117°
2026-05-06 16:19 30.81857 -102.44252 36877 ft 517 kts 117°
2026-05-06 16:20 30.79821 -102.36228 36872 ft 516 kts 116°
2026-05-06 16:20 30.77795 -102.28236 36870 ft 515 kts 117°
2026-05-06 16:21 30.75763 -102.20253 36872 ft 514 kts 117°
2026-05-06 16:21 30.73728 -102.12283 36876 ft 515 kts 117°
2026-05-06 16:22 30.71686 -102.04308 36872 ft 515 kts 117°
2026-05-06 16:22 30.69637 -101.96334 36872 ft 516 kts 116°
2026-05-06 16:23 30.67582 -101.88351 36876 ft 516 kts 116°
2026-05-06 16:23 30.65523 -101.80374 36879 ft 515 kts 116°
2026-05-06 16:24 30.63460 -101.72403 36884 ft 515 kts 116°
2026-05-06 16:24 30.61391 -101.64435 36877 ft 515 kts 116°
2026-05-06 16:25 30.59321 -101.56487 36893 ft 514 kts 116°
2026-05-06 16:25 30.57248 -101.48549 36900 ft 514 kts 116°
2026-05-06 16:26 30.55173 -101.40624 36897 ft 514 kts 116°
2026-05-06 16:26 30.53091 -101.32693 36897 ft 514 kts 116°
2026-05-06 16:27 30.51005 -101.24770 36966 ft 513 kts 116°
2026-05-06 16:27 30.48920 -101.16870 36962 ft 512 kts 116°
2026-05-06 16:28 30.46830 -101.08976 36941 ft 512 kts 116°
2026-05-06 16:28 30.44740 -101.01097 36927 ft 511 kts 116°
2026-05-06 16:29 30.42647 -100.93236 36920 ft 511 kts 116°
2026-05-06 16:29 30.41600 -100.89309 36385 ft 511 kts 116°
2026-05-06 16:29 30.40548 -100.85372 35775 ft 512 kts 116°
2026-05-06 16:30 30.39493 -100.81428 35126 ft 514 kts 116°
2026-05-06 16:30 30.39134 -100.80091 34910 ft 514 kts 116°
2026-05-06 16:30 30.37384 -100.73549 34180 ft 509 kts 116°
2026-05-06 16:30 30.36338 -100.69647 33679 ft 506 kts 116°
2026-05-06 16:31 30.35297 -100.65770 33186 ft 502 kts 116°
2026-05-06 16:31 30.34263 -100.61922 32720 ft 498 kts 116°
2026-05-06 16:31 30.33235 -100.58106 32265 ft 494 kts 116°
2026-05-06 16:31 30.32215 -100.54326 31775 ft 490 kts 115°
2026-05-06 16:32 30.31201 -100.50573 31323 ft 487 kts 115°
2026-05-06 16:32 30.30194 -100.46850 30862 ft 484 kts 115°
2026-05-06 16:32 30.29529 -100.44393 30554 ft 482 kts 115°
2026-05-06 16:32 30.28528 -100.40704 30076 ft 479 kts 115°
2026-05-06 16:33 30.27533 -100.37037 29569 ft 476 kts 115°
2026-05-06 16:33 30.26545 -100.33401 29119 ft 472 kts 115°
2026-05-06 16:33 30.25566 -100.29801 28668 ft 467 kts 115°
2026-05-06 16:34 30.23630 -100.22695 27766 ft 460 kts 115°
2026-05-06 16:34 30.22671 -100.19185 27287 ft 457 kts 115°
2026-05-06 16:34 30.21715 -100.15691 26831 ft 454 kts 115°
2026-05-06 16:34 30.20767 -100.12227 26387 ft 451 kts 115°
2026-05-06 16:35 30.19823 -100.08784 25957 ft 448 kts 115°
2026-05-06 16:35 30.18884 -100.05362 25494 ft 445 kts 115°
2026-05-06 16:35 30.17640 -100.00874 25016 ft 438 kts 117°
2026-05-06 16:35 30.16965 -99.98642 24750 ft 434 kts 118°
2026-05-06 16:36 30.15931 -99.95366 24244 ft 434 kts 118°
2026-05-06 16:36 30.14889 -99.92100 23796 ft 432 kts 118°
2026-05-06 16:36 30.13853 -99.88851 23335 ft 430 kts 118°
2026-05-06 16:36 30.12823 -99.85617 22847 ft 427 kts 118°
2026-05-06 16:37 30.11805 -99.82419 22412 ft 422 kts 118°
2026-05-06 16:37 30.10800 -99.79258 21996 ft 417 kts 118°
2026-05-06 16:37 30.09804 -99.76131 21585 ft 413 kts 117°
2026-05-06 16:37 30.08818 -99.73037 21166 ft 408 kts 117°
2026-05-06 16:38 30.07841 -99.69976 20756 ft 404 kts 117°
2026-05-06 16:38 30.06886 -99.66987 20353 ft 400 kts 117°
2026-05-06 16:38 30.05926 -99.63983 19944 ft 397 kts 117°
2026-05-06 16:38 30.04973 -99.61006 19548 ft 393 kts 117°
2026-05-06 16:39 30.04030 -99.58061 19138 ft 389 kts 117°
2026-05-06 16:39 30.03094 -99.55141 18754 ft 387 kts 117°
2026-05-06 16:39 30.02160 -99.52233 18355 ft 386 kts 117°
2026-05-06 16:39 30.01231 -99.49343 17931 ft 383 kts 117°
2026-05-06 16:40 30.00312 -99.46480 17563 ft 377 kts 117°
2026-05-06 16:40 29.99411 -99.43671 17213 ft 370 kts 117°
2026-05-06 16:40 29.98523 -99.40909 16843 ft 365 kts 117°
2026-05-06 16:40 29.97642 -99.38175 16475 ft 362 kts 117°
2026-05-06 16:41 29.96764 -99.35457 16166 ft 360 kts 117°
2026-05-06 16:41 29.95894 -99.32762 15806 ft 358 kts 117°
2026-05-06 16:41 29.95030 -99.30087 15448 ft 354 kts 117°
2026-05-06 16:41 29.94174 -99.27436 15097 ft 351 kts 117°
2026-05-06 16:42 29.93323 -99.24806 14751 ft 349 kts 117°
2026-05-06 16:42 29.92475 -99.22196 14404 ft 347 kts 117°
2026-05-06 16:42 29.91575 -99.19632 14070 ft 343 kts 119°
2026-05-06 16:42 29.90655 -99.17111 13716 ft 339 kts 119°
2026-05-06 16:43 29.89740 -99.14620 13367 ft 337 kts 119°
2026-05-06 16:43 29.88827 -99.12144 13021 ft 335 kts 118°
2026-05-06 16:43 29.87922 -99.09684 12686 ft 333 kts 118°
2026-05-06 16:43 29.87020 -99.07231 12341 ft 332 kts 118°
2026-05-06 16:44 29.86122 -99.04788 11999 ft 331 kts 118°
2026-05-06 16:44 29.85226 -99.02353 11656 ft 329 kts 117°
2026-05-06 16:44 29.84346 -98.99963 11321 ft 327 kts 117°
2026-05-06 16:44 29.83461 -98.97554 10983 ft 326 kts 116°
2026-05-06 16:45 29.82583 -98.95118 10638 ft 325 kts 116°
2026-05-06 16:45 29.81745 -98.92776 10429 ft 316 kts 116°
2026-05-06 16:45 29.80913 -98.90452 10140 ft 313 kts 116°
2026-05-06 16:45 29.80079 -98.88125 9698 ft 315 kts 116°
2026-05-06 16:46 29.79249 -98.85809 9305 ft 312 kts 115°
2026-05-06 16:46 29.78426 -98.83512 8981 ft 309 kts 115°
2026-05-06 16:46 29.77616 -98.81249 8739 ft 301 kts 115°
2026-05-06 16:46 29.76830 -98.79051 8494 ft 294 kts 114°
2026-05-06 16:47 29.76069 -98.76887 8184 ft 290 kts 114°
2026-05-06 16:47 29.75309 -98.74777 7887 ft 280 kts 114°
2026-05-06 16:47 29.74574 -98.72748 7621 ft 269 kts 114°
2026-05-06 16:47 29.73868 -98.70794 7348 ft 260 kts 114°
2026-05-06 16:48 29.73186 -98.68906 7090 ft 251 kts 115°
2026-05-06 16:48 29.72521 -98.67073 6825 ft 246 kts 114°
2026-05-06 16:48 29.71872 -98.65278 6573 ft 241 kts 113°
2026-05-06 16:48 29.71233 -98.63502 6345 ft 240 kts 112°
2026-05-06 16:49 29.70617 -98.61728 6090 ft 237 kts 109°
2026-05-06 16:49 29.70136 -98.59925 6000 ft 235 kts 106°
2026-05-06 16:49 29.69701 -98.58115 6003 ft 235 kts 105°
2026-05-06 16:49 29.69272 -98.56300 6003 ft 235 kts 105°
2026-05-06 16:50 29.68843 -98.54484 6005 ft 235 kts 105°
2026-05-06 16:50 29.68414 -98.52668 6009 ft 235 kts 105°
2026-05-06 16:50 29.67984 -98.50855 6014 ft 235 kts 105°
2026-05-06 16:50 29.67554 -98.49043 6016 ft 235 kts 105°
2026-05-06 16:51 29.67140 -98.47224 6017 ft 235 kts 101°
2026-05-06 16:51 29.67135 -98.45359 6013 ft 235 kts 75°
2026-05-06 16:51 29.67925 -98.43748 5969 ft 234 kts 47°
2026-05-06 16:51 29.69112 -98.42461 5968 ft 236 kts 40°
2026-05-06 16:52 29.70368 -98.41246 5973 ft 236 kts 40°
2026-05-06 16:52 29.71629 -98.40034 5976 ft 236 kts 40°
2026-05-06 16:52 29.72887 -98.38816 5975 ft 237 kts 40°
2026-05-06 16:52 29.74171 -98.37574 5935 ft 245 kts 40°
2026-05-06 16:53 29.75479 -98.36314 5818 ft 238 kts 40°
2026-05-06 16:53 29.76714 -98.35125 5581 ft 231 kts 40°
2026-05-06 16:53 29.77940 -98.33943 5169 ft 230 kts 40°
2026-05-06 16:53 29.79166 -98.32759 4722 ft 230 kts 40°
2026-05-06 16:54 29.80367 -98.31560 4291 ft 228 kts 46°
2026-05-06 16:54 29.81264 -98.30102 4010 ft 218 kts 67°
2026-05-06 16:54 29.81573 -98.28491 3962 ft 199 kts 92°
2026-05-06 16:54 29.81266 -98.27026 3964 ft 178 kts 118°
2026-05-06 16:55 29.80534 -98.26008 3970 ft 157 kts 142°
2026-05-06 16:55 29.79587 -98.25453 3983 ft 153 kts 164°
2026-05-06 16:55 29.78533 -98.25349 3974 ft 154 kts 186°
2026-05-06 16:55 29.77516 -98.25728 3969 ft 155 kts 207°
2026-05-06 16:56 29.76592 -98.26377 3960 ft 156 kts 211°
2026-05-06 16:56 29.75674 -98.27063 3856 ft 160 kts 211°
2026-05-06 16:56 29.74720 -98.27761 3549 ft 159 kts 210°
2026-05-06 16:56 29.73795 -98.28419 3567 ft 156 kts 209°
2026-05-06 16:57 29.72871 -98.29067 3561 ft 156 kts 210°
2026-05-06 16:57 29.71944 -98.29717 3552 ft 156 kts 209°
2026-05-06 16:57 29.71020 -98.30364 3484 ft 155 kts 210°
2026-05-06 16:57 29.70094 -98.31006 3460 ft 155 kts 208°
2026-05-06 16:58 29.69168 -98.31646 3465 ft 155 kts 208°
2026-05-06 16:58 29.68242 -98.32286 3462 ft 155 kts 208°
2026-05-06 16:58 29.67314 -98.32926 3453 ft 156 kts 209°
2026-05-06 16:58 29.66385 -98.33567 3454 ft 156 kts 209°
2026-05-06 16:59 29.65458 -98.34208 3451 ft 155 kts 208°
2026-05-06 16:59 29.64564 -98.34916 3448 ft 157 kts 217°
2026-05-06 16:59 29.63715 -98.35724 3273 ft 162 kts 219°
2026-05-06 16:59 29.62829 -98.36599 2721 ft 170 kts 219°
2026-05-06 17:00 29.61973 -98.37452 2425 ft 162 kts 220°
2026-05-06 17:00 29.61135 -98.38284 2143 ft 156 kts 217°
2026-05-06 17:00 29.60353 -98.39059 2016 ft 141 kts 219°
2026-05-06 17:00 29.59585 -98.39819 2072 ft 154 kts 218°
2026-05-06 17:01 29.58750 -98.40640 1767 ft 164 kts 219°
2026-05-06 17:01 29.57904 -98.41481 1500 ft 154 kts 219°
2026-05-06 17:01 29.57128 -98.42266 1312 ft 143 kts 219°
2026-05-06 17:01 29.56410 -98.43013 1188 ft 138 kts 221°
2026-05-06 17:02 29.55686 -98.43755 1193 ft 145 kts 216°
2026-05-06 17:02 29.54849 -98.44493 1057 ft 152 kts 219°
2026-05-06 17:02 29.54085 -98.45269 903 ft 143 kts 221°
2026-05-06 17:02 29.53210 -98.46126 1339 ft 178 kts 219°
2026-05-06 17:03 29.52232 -98.47073 2077 ft 189 kts 219°
2026-05-06 17:03 29.51195 -98.48084 2669 ft 205 kts 219°
2026-05-06 17:03 29.50040 -98.49216 2976 ft 234 kts 218°
2026-05-06 17:03 29.48715 -98.50518 3036 ft 267 kts 219°
2026-05-06 17:04 29.47241 -98.51975 3045 ft 292 kts 219°
2026-05-06 17:04 29.45686 -98.53516 3049 ft 285 kts 220°
2026-05-06 17:04 29.44190 -98.54756 3053 ft 248 kts 199°
2026-05-06 17:04 29.42594 -98.54856 3063 ft 225 kts 159°
2026-05-06 17:05 29.41351 -98.53846 3063 ft 222 kts 131°
2026-05-06 17:05 29.40325 -98.52516 3053 ft 224 kts 130°
2026-05-06 17:05 29.39256 -98.51207 3064 ft 226 kts 133°
2026-05-06 17:05 29.38130 -98.49959 3060 ft 225 kts 135°
2026-05-06 17:06 29.36971 -98.48760 3059 ft 224 kts 136°
2026-05-06 17:06 29.35789 -98.47590 3061 ft 225 kts 138°
2026-05-06 17:06 29.34588 -98.46433 3064 ft 226 kts 139°
2026-05-06 17:06 29.33394 -98.45296 3063 ft 226 kts 139°
2026-05-06 17:07 29.32179 -98.44147 3065 ft 227 kts 139°
2026-05-06 17:07 29.30957 -98.42995 3044 ft 227 kts 140°
2026-05-06 17:07 29.29736 -98.41846 3043 ft 228 kts 139°
2026-05-06 17:07 29.28518 -98.40696 3036 ft 226 kts 138°
2026-05-06 17:08 29.27305 -98.39551 3025 ft 226 kts 140°
2026-05-06 17:08 29.26082 -98.38408 3033 ft 228 kts 140°
2026-05-06 17:08 29.24852 -98.37261 3028 ft 228 kts 140°
2026-05-06 17:08 29.23618 -98.36108 3024 ft 229 kts 140°
2026-05-06 17:09 29.22386 -98.34949 3020 ft 229 kts 138°
2026-05-06 17:09 29.21366 -98.33558 3024 ft 228 kts 120°
2026-05-06 17:09 29.20884 -98.31845 3024 ft 229 kts 94°
2026-05-06 17:09 29.21197 -98.30084 3021 ft 229 kts 62°
2026-05-06 17:10 29.22308 -98.28796 3034 ft 231 kts 28°
2026-05-06 17:10 29.23866 -98.28422 3073 ft 235 kts 354°
2026-05-06 17:10 29.25511 -98.28817 3385 ft 248 kts 342°
2026-05-06 17:10 29.27101 -98.29514 4211 ft 240 kts 336°
2026-05-06 17:11 29.28598 -98.30308 5056 ft 236 kts 334°
2026-05-06 17:11 29.30087 -98.31141 5654 ft 241 kts 333°
2026-05-06 17:11 29.31600 -98.31981 5913 ft 242 kts 333°
2026-05-06 17:11 29.33126 -98.32798 5956 ft 242 kts 334°
2026-05-06 17:12 29.34666 -98.33592 5963 ft 243 kts 335°
2026-05-06 17:12 29.36217 -98.34370 5964 ft 243 kts 335°
2026-05-06 17:12 29.37754 -98.35128 5948 ft 235 kts 335°
2026-05-06 17:12 29.39197 -98.35833 5997 ft 213 kts 336°
2026-05-06 17:13 29.40516 -98.36476 5984 ft 203 kts 335°
2026-05-06 17:13 29.41813 -98.37112 5973 ft 203 kts 336°
2026-05-06 17:13 29.43113 -98.37752 5973 ft 203 kts 335°
2026-05-06 17:13 29.44410 -98.38391 5975 ft 203 kts 335°
2026-05-06 17:14 29.45676 -98.39014 5978 ft 186 kts 336°
2026-05-06 17:14 29.46803 -98.39563 5841 ft 167 kts 337°
2026-05-06 17:14 29.47904 -98.39836 5537 ft 159 kts 353°
2026-05-06 17:14 29.48984 -98.39930 5161 ft 157 kts 356°
2026-05-06 17:15 29.50071 -98.39985 4769 ft 156 kts 358°
2026-05-06 17:15 29.51153 -98.40022 4359 ft 155 kts 359°
2026-05-06 17:15 29.52228 -98.40050 4024 ft 151 kts 360°
2026-05-06 17:15 29.53238 -98.40073 3776 ft 142 kts
2026-05-06 17:16 29.54233 -98.40093 3465 ft 144 kts
2026-05-06 17:16 29.55249 -98.40115 3123 ft 148 kts 359°
2026-05-06 17:16 29.56245 -98.40437 2888 ft 152 kts 327°
2026-05-06 17:16 29.56848 -98.41412 2647 ft 155 kts 283°
2026-05-06 17:17 29.56685 -98.42593 2340 ft 152 kts 236°
2026-05-06 17:17 29.55925 -98.43480 1866 ft 168 kts 217°
2026-05-06 17:17 29.54942 -98.44393 1169 ft 191 kts 219°
2026-05-06 17:17 29.53973 -98.45369 829 ft 178 kts 220°
2026-05-06 17:18 29.53149 -98.46180 788 ft 120 kts 219°
2026-05-06 17:18 29.52716 -98.46608 796 ft 49 kts 220°
2026-05-06 17:18 29.52679 -98.46736 796 ft 7 kts 323°
2026-05-06 17:18 29.52699 -98.46757 797 ft 0 kts 301°
2026-05-06 17:20 29.52704 -98.46780 795 ft 4 kts 276°
2026-05-06 17:20 29.52730 -98.46861 796 ft 13 kts 310°
2026-05-06 17:20 29.52789 -98.46941 796 ft 13 kts 310°
2026-05-06 17:21 29.52843 -98.47014 798 ft 11 kts 306°
2026-05-06 17:21 29.52868 -98.47084 800 ft 9 kts 284°
2026-05-06 17:21 29.52881 -98.47140 800 ft 0 kts 285°
2026-05-06 17:22 29.52881 -98.47142 801 ft 1 kts 285°
2026-05-06 17:22 29.52881 -98.47143 801 ft 0 kts 285°